Regional Weather Roundup
Issued by NWS

Home | Current Version | Previous Version | Text Only | Print | Product List | Glossary Off
Versions: 1 2 3 4 5 6 7 8 9 10 11 12 13 14 15 16 17 18 19 20 21 22 23 24 25 26 27 28 29 30 31 32 33 34 35 36 37 38 39 40 41 42 43 44 45 46 47 48 49 50

000
ASUS43 KDMX 060901
RWRIA

WEATHER ROUNDUP FOR IOWA
NATIONAL WEATHER SERVICE DES MOINES IA
300 AM CST TUE DEC 06 2016

NOTE: "FAIR" INDICATES FEW OR NO CLOUDS BELOW 12,000 FEET WITH NO
SIGNIFICANT WEATHER AND/OR OBSTRUCTIONS TO VISIBILITY.

* - THESE STATIONS ARE NOT NWS STATIONS...THUS NOT UNDER NWS
QUALITY CONTROL.  THEY ALSO DO NOT REPORT WEATHER SUCH
AS PRECIPITATION OR FOG.

IAZ001>003-012>014-020>022-031>034-043>046-061000-
   NORTHWEST IOWA

CITY           SKY/WX    TMP DP  RH WIND       PRES   REMARKS
CARROLL *      CLOUDY    30  25  80 NW20G28   29.88R WCI  18
CHEROKEE *     CLOUDY    25  18  74 W17       29.88R WCI  12
DENISON *      CLOUDY    28  21  74 NW14G23   29.88R WCI  17
LE MARS *      CLOUDY    25  16  68 W18       29.91R WCI  11
ORANGE CITY *  CLOUDY    21  18  86 NW21G26   29.86R WCI   6
SHELDON *      CLOUDY    21  16  79 W29       29.83R WCI   3
SIOUX CITY     CLOUDY    26  14  60 NW21      29.91R WCI  12
SPENCER        CLOUDY    25  17  72 W26       29.83R WCI   9
STORM LAKE *   CLOUDY    25  18  74 NW18G30   29.86R WCI  11
$$

IAZ055>058-069>071-079>083-090>094-061000-
   SOUTHWEST IOWA

CITY           SKY/WX    TMP DP  RH WIND       PRES   REMARKS
ATLANTIC *     CLOUDY    30  25  80 NW16G25   29.91R WCI  19
AUDUBON *      CLOUDY    30  25  80 NW9G17    29.90R WCI  22
CLARINDA *       N/A     32  27  80 N20G29    29.92R WCI  20
COUNCIL BLFS * CLOUDY    30  23  74 NW13      29.92S WCI  20
CRESTON *      CLOUDY    34  30  86 NW16G24   29.86R WCI  23
HARLAN  *      MOCLDY    30  21  69 NW21      29.95R WCI  17
LAMONI         CLOUDY    37  34  89 NW17      29.81R WCI  27
RED OAK *      CLOUDY    32  25  74 NW12      29.92R WCI  23
SHENANDOAH *   CLOUDY    32  25  74 NW15G24   29.93R WCI  22
$$

IAZ047>049-059>061-072>074-084-061000-
   CENTRAL IOWA

CITY           SKY/WX    TMP DP  RH WIND       PRES   REMARKS
AMES           FLURRIES  33  31  92 NW13      29.83R WCI  24
ANKENY *       CLOUDY    34 N/A N/A NW15      29.84R WCI  24
BOONE *        CLOUDY    32  28  86 NW14G21   29.82R WCI  22
CHARITON *       N/A     37  36  93 W8        29.81R FOG     WCI  31
DES MOINES     FLURRIES  35  30  82 NW20G26   29.83R WCI  24
GRINNELL*      CLOUDY    36  35  96 S3        29.81R FOG
KNOXVILLE *    CLOUDY    37  36  93 SW6       29.80R FOG     WCI  33
MARSHALLTOWN   LGT RAIN  36  35  96 W9        29.80R FOG     WCI  29
NEWTON *       CLOUDY    37  36  93 SW5       29.79F FOG     WCI  34
PELLA *        CLOUDY    37  36  93 SW5       29.81F FOG     WCI  34
PERRY *        CLOUDY    32  30  92 NW10      29.86R WCI  24
$$

IAZ004>006-015-016-023>025-035-036-061000-
   NORTH CENTRAL IOWA

CITY           SKY/WX    TMP DP  RH WIND       PRES   REMARKS
ALGONA *       CLOUDY    30  25  80 W20       29.82R WCI  18
CLARION *      CLOUDY    32  30  93 W14       29.81R WCI  22
ESTHERVILLE    CLOUDY    25  20  81 W22       29.80R WCI  10
FORT DODGE *   CLOUDY    30  23  74 W12G21    29.84R WCI  21
MASON CITY     CLOUDY    32  28  85 W13       29.80F WCI  22
WEBSTER CITY * CLOUDY    32  30  93 NW15      29.81R WCI  22
IOWA FALLS *   LGT SNOW  33  32  96 NW12      29.81S WCI  24
$$

IAZ007>011-017>019-026>030-037>042-050>054-066-061000-
   NORTHEAST IOWA

CITY           SKY/WX    TMP DP  RH WIND       PRES   REMARKS
CEDAR RAPIDS   CLOUDY    33  33 100 SE5       29.80F WCI  29
CHARLES CITY * LGT SNOW  34  34 100 SW8       29.79R VSB 1   WCI  27
CLINTON *      FOG       32  32 100 E6        29.85S VSB 1/2 WCI  26
DECORAH *      CLOUDY    32  32 100 S10G17    29.78F FOG     WCI  24
DUBUQUE        SNOW      31  31 100 S8        29.82F VSB 1/2 WCI  23
MONTICELLO *   CLOUDY    32  32 100 SE3       29.82F
OELWEIN *      CLOUDY    32  32 100 S12       29.80F FOG     WCI  23
WATERLOO       CLOUDY    33  32  96 S9        29.80S FOG     WCI  25
$$

IAZ064-065-067-068-078-061000-
   EAST CENTRAL IOWA

CITY           SKY/WX    TMP DP  RH WIND       PRES   REMARKS
DAVENPORT      FOG       33  31  92 SE6       29.84S VSB 1/2 WCI  28
IOWA CITY      CLOUDY    35  32  88 SE3       29.84S
MUSCATINE *    CLOUDY    36  34  93 CALM      29.84S
QUAD CITIES    CLOUDY    34  32  92 E5        29.84R FOG     WCI  30
$$

IAZ062-063-075>077-085>089-095>099-061000-
   SOUTHEAST IOWA

CITY           SKY/WX    TMP DP  RH WIND       PRES   REMARKS
BURLINGTON     CLOUDY    34  34 100 SW5       29.82S FOG     WCI  30
FAIRFIELD *    CLOUDY    36  34  93 S5        29.81F WCI  32
FORT MADISON * CLOUDY    36  34  93 CALM      29.82F FOG
KEOKUK *       CLOUDY    36  34  93 CALM      29.81F
OSKALOOSA *    CLOUDY    35  35  96 S6        29.81S FOG     WCI  30
CENTERVILLE *  CLOUDY    36  36 100 CALM      29.81R
OTTUMWA        CLOUDY    36  34  92 S6        29.79F FOG     WCI  31
WASHINGTON *   CLOUDY    34  34 100 CALM      29.83S FOG
$$

ABBREVIATIONS USED IN REMARKS
   TC - TEMPERATURES IN CELSIUS
  WCI - WIND CHILL INDEX
   HX - HEAT INDEX
  VSB - VISIBILITY
$$




USA.gov is the U.S. government's official web portal to all federal, state and local government web resources and services.